Location: Oshawa
(43.9000°N, 78.8670°W)
Time: 01:21:12
(UTC-04:00)

Cosmos 1707 Rocket - Visible Passes

Search period start: 21 October 2014 00:00
Search period end: 31 October 2014 00:00
Orbit: 608 x 632 km, 82.5° (Epoch: 20 October)

Date Brightness Start Highest point End Pass type
(mag) Time Alt. Az. Time Alt. Az. Time Alt. Az.
21 Oct 5.3 04:56:38 10° N 05:03:21 26° SE 05:05:23 10° SSE visible
21 Oct 5.7 06:40:53 10° WSW 06:40:53 10° WSW 06:40:54 10° WSW visible
21 Oct 6.1 19:07:59 10° SW 19:11:35 24° WNW 19:15:13 10° NNW visible
22 Oct 6.6 19:27:12 10° W 19:29:33 14° WNW 19:31:55 10° NW visible
25 Oct 6.2 18:41:02 10° SW 18:44:32 23° WNW 18:48:03 10° NNW visible
26 Oct 6.6 19:00:25 10° W 19:02:31 13° WNW 19:04:37 10° NW visible
30 Oct 6.6 18:33:40 10° W 18:35:27 12° WNW 18:37:15 10° NW visible
